Vorticity
6 6 5 5 4 4 5 5 2 0 2 5 6 4 3 4 4 4 4 5 3 3 3 5 7 4 2 -0 21 -3 -14 52 6 5 6 4 4 5 13 10 6 7 7
4 4 3 3 3 3 4 5 5 6 3 -1 2 5 6 4 4 4 3 4 5 4 5 4 3 6 3 18 11 -44 -6 33 -15 21 -9 5 3 3 5 9 13 8 6
4 4 4 4 3 4 4 3 3 3 4 5 2 -1 2 8 6 4 4 2 5 5 4 5 5 2 2 7 3 -2 26 -33 -11 17 9 10 6 4 2 4 6 11 12
6 6 5 4 5 5 4 4 3 3 3 3 3 1 -0 4 8 5 5 5 2 3 5 5 6 6 3 2 5 9 -5 28 -8 10 18 23 4 9 4 5 4 5 7
8 8 7 7 8 7 7 7 6 5 6 6 5 4 1 1 8 9 5 6 5 4 3 4 5 6 7 2 7 9 -1 -6 22 31 2 -5 22 11 8 7 9 6 4
11 13 13 15 17 18 18 15 16 19 19 16 14 10 7 4 7 13 11 4 6 6 4 4 4 5 6 7 2 3 16 8 -12 4 38 17 18 0 7 4 12 7 5
19 20 21 22 23 24 27 27 28 27 27 27 31 25 15 15 16 12 17 13 6 8 7 5 4 3 5 7 6 5 -1 14 -17 -20 11 -4 -10 27 21 2 16 4 4
22 26 30 32 33 33 32 30 28 28 29 30 33 33 28 24 25 8 11 23 11 10 10 7 7 6 4 4 7 7 8 -1 11 10 -3 -28 10 4 4 27 7 -12 -0
26 22 20 18 18 18 17 17 16 16 17 20 25 28 27 29 29 23 20 15 20 11 11 9 7 10 7 5 4 5 6 7 5 2 -3 16 -17 6 8 -7 15 54 5
22 20 16 15 16 16 16 16 17 18 18 17 15 16 20 29 27 27 29 22 18 19 14 9 7 6 12 9 8 5 5 5 4 2 8 -5 -18 14 22 15 -0 9 50
16 11 10 12 13 14 16 14 14 15 16 17 18 16 15 16 20 25 26 32 30 21 21 15 7 4 4 8 9 10 4 5 6 7 2 4 23 4 -57 9 12 25 20
16 19 19 19 17 20 21 20 21 24 25 23 22 22 20 16 13 14 19 22 25 42 27 17 21 2 7 2 5 7 9 5 5 6 9 0 -3 -6 11 -7 38 -33 1
8 20 9 9 16 14 18 13 15 15 16 19 21 24 27 30 30 23 16 15 17 22 39 35 20 24 5 1 2 1 6 6 5 5 4 6 6 7 -7 18 -40 32 -3
28 1 11 -2 14 17 16 12 12 10 9 12 15 15 16 21 23 28 31 28 23 17 21 30 35 31 22 18 1 3 2 9 7 5 6 4 6 6 11 4 10 -9 19
18 -3 -0 18 22 16 6 11 7 10 10 10 15 14 13 19 19 21 27 28 32 31 25 19 26 30 34 24 27 7 4 3 9 9 7 5 5 5 6 1 -0 6 16
4 0 21 20 24 12 6 5 4 8 7 11 14 10 13 14 12 17 14 18 24 33 37 30 22 20 27 36 30 29 12 2 4 11 12 7 5 5 6 11 10 6 -7
5 18 15 12 14 6 4 -0 8 9 -2 14 17 12 16 12 17 20 18 16 14 16 24 34 39 25 22 23 35 37 22 18 5 4 8 11 8 4 4 7 3 11 5
7 10 8 6 11 15 13 1 1 2 1 19 16 15 10 11 17 15 16 14 12 15 16 17 25 37 32 24 23 32 40 16 21 8 3 5 9 8 6 4 7 7 6
4 11 -6 22 14 6 8 15 11 5 7 22 14 14 8 12 16 14 13 13 16 17 19 17 16 20 29 35 24 24 30 37 17 22 9 2 4 7 7 8 5 6 9
3 4 -6 13 21 21 17 15 11 9 14 19 14 13 8 12 14 14 13 15 16 16 18 17 18 16 18 25 38 26 27 31 31 15 25 9 3 4 8 8 9 6 5
3 2 -1 28 23 21 13 13 14 13 20 19 13 13 7 13 14 12 14 14 17 18 18 18 19 19 18 22 27 33 35 28 31 35 15 21 10 3 5 8 7 8 7
5 10 19 22 8 6 5 8 13 19 18 19 11 11 6 9 13 12 13 15 16 16 18 18 16 17 21 19 10 20 36 43 30 34 32 14 19 9 2 4 6 9 10
12 23 22 7 7 5 5 13 11 17 17 19 10 12 4 5 10 12 11 12 16 17 14 16 14 14 15 17 20 20 21 32 46 33 37 29 16 9 7 2 3 6 5
22 15 9 7 10 14 16 15 15 17 16 18 11 13 5 4 5 8 10 10 14 18 17 12 11 12 16 10 16 21 22 24 41 47 35 43 23 15 5 8 4 2 3
9 10 9 6 10 11 11 13 15 16 15 15 11 14 10 4 6 5 7 9 11 14 16 17 20 22 25 26 16 17 29 26 18 43 46 35 48 22 12 5 7 3 2
14 12 10 12 9 7 12 18 16 15 15 14 11 12 12 7 6 6 7 6 5 8 8 8 14 9 10 13 20 36 28 21 29 29 48 47 37 52 21 6 6 6 4
Height
5734 5732 5730 5730 5730 5730 5729 5729 5728 5727 5728 5728 5728 5728 5729 5730 5732 5735 5738 5739 5740 5743 5748 5752 5754 5758 5762 5765 5768 5770 5772 5777 5781 5783 5787 5791 5794 5797 5800 5804 5807 5811 5815
5713 5712 5710 5709 5708 5708 5707 5707 5707 5706 5705 5705 5706 5707 5708 5710 5711 5714 5717 5721 5723 5725 5729 5734 5738 5742 5746 5751 5756 5754 5756 5763 5767 5770 5772 5777 5782 5786 5790 5794 5798 5800 5804
5690 5687 5686 5684 5683 5681 5680 5679 5679 5679 5679 5680 5680 5680 5683 5686 5688 5691 5694 5698 5702 5705 5709 5714 5720 5724 5729 5736 5741 5742 5744 5747 5749 5753 5755 5763 5771 5774 5777 5782 5786 5790 5793
5663 5659 5655 5653 5651 5649 5647 5646 5645 5644 5645 5647 5649 5651 5652 5656 5661 5664 5669 5673 5678 5683 5687 5693 5699 5705 5710 5717 5723 5728 5731 5734 5740 5744 5746 5751 5756 5760 5765 5770 5774 5778 5782
5633 5629 5624 5619 5615 5611 5609 5607 5606 5605 5606 5607 5611 5615 5619 5624 5629 5635 5641 5646 5650 5656 5663 5668 5675 5682 5689 5695 5703 5709 5715 5718 5724 5727 5733 5735 5740 5746 5753 5756 5760 5765 5770
5599 5593 5588 5582 5578 5573 5570 5567 5566 5566 5568 5570 5573 5577 5582 5588 5595 5602 5611 5617 5623 5628 5634 5642 5651 5657 5665 5673 5681 5688 5695 5702 5706 5711 5714 5721 5724 5732 5737 5742 5747 5752 5756
5564 5557 5552 5547 5543 5540 5538 5536 5535 5533 5533 5535 5538 5541 5544 5550 5559 5568 5578 5585 5592 5600 5605 5614 5623 5633 5641 5649 5657 5666 5674 5680 5688 5694 5699 5703 5710 5717 5722 5725 5733 5738 5742
5531 5524 5521 5519 5516 5513 5509 5507 5505 5504 5504 5504 5506 5507 5510 5514 5521 5530 5540 5554 5563 5571 5578 5584 5594 5605 5614 5624 5632 5642 5652 5659 5668 5676 5684 5689 5696 5701 5706 5713 5714 5720 5726
5508 5503 5499 5496 5493 5490 5486 5484 5482 5480 5479 5479 5479 5479 5480 5482 5487 5495 5503 5514 5528 5540 5549 5557 5565 5575 5586 5597 5607 5617 5627 5637 5647 5655 5664 5672 5679 5686 5692 5697 5699 5705 5711
5491 5486 5482 5478 5475 5471 5468 5464 5461 5460 5458 5457 5456 5457 5456 5456 5458 5462 5469 5478 5489 5504 5517 5527 5536 5547 5558 5569 5580 5592 5602 5612 5624 5634 5643 5653 5664 5670 5677 5682 5687 5690 5696
5475 5471 5467 5462 5458 5454 5450 5447 5443 5440 5437 5436 5435 5435 5434 5435 5435 5436 5440 5445 5456 5466 5480 5494 5506 5518 5529 5541 5552 5565 5576 5587 5600 5610 5621 5634 5643 5652 5660 5666 5671 5676 5682
5459 5456 5452 5447 5442 5437 5433 5429 5425 5422 5419 5417 5415 5413 5413 5414 5414 5414 5416 5419 5425 5434 5445 5458 5473 5485 5498 5511 5524 5537 5550 5561 5575 5588 5598 5612 5621 5632 5643 5649 5654 5664 5669
5446 5442 5438 5434 5430 5425 5420 5416 5412 5409 5405 5402 5399 5396 5393 5392 5392 5392 5393 5396 5400 5407 5414 5425 5438 5454 5466 5479 5495 5509 5523 5535 5548 5561 5575 5588 5598 5612 5624 5632 5638 5646 5656
5433 5430 5426 5422 5417 5413 5409 5405 5400 5396 5393 5389 5385 5382 5379 5376 5373 5371 5371 5373 5376 5382 5388 5396 5407 5419 5433 5449 5464 5480 5494 5508 5522 5534 5549 5562 5575 5590 5601 5611 5622 5631 5638
5421 5417 5414 5409 5404 5401 5398 5394 5390 5386 5382 5378 5373 5369 5366 5361 5357 5355 5354 5353 5355 5358 5364 5372 5379 5389 5400 5416 5432 5445 5463 5480 5494 5509 5523 5537 5552 5566 5578 5590 5604 5614 5623
5409 5406 5402 5397 5392 5390 5388 5385 5380 5376 5371 5367 5362 5358 5354 5349 5344 5342 5340 5338 5338 5339 5342 5347 5354 5362 5372 5384 5396 5413 5428 5448 5465 5483 5498 5511 5527 5543 5556 5570 5583 5594 5604
5399 5395 5390 5386 5382 5380 5377 5374 5369 5365 5361 5356 5351 5347 5343 5339 5333 5330 5327 5326 5325 5325 5326 5328 5332 5340 5347 5355 5365 5377 5393 5412 5432 5453 5471 5485 5502 5517 5532 5549 5561 5570 5582
5387 5383 5379 5375 5372 5368 5365 5362 5357 5353 5349 5344 5340 5335 5332 5328 5323 5319 5316 5314 5313 5312 5312 5313 5314 5319 5326 5331 5339 5348 5358 5376 5399 5421 5442 5459 5476 5492 5508 5522 5535 5548 5561
5376 5372 5368 5363 5359 5356 5352 5348 5344 5341 5337 5333 5329 5325 5321 5318 5314 5310 5306 5303 5302 5300 5298 5298 5300 5302 5307 5309 5315 5321 5330 5343 5365 5389 5409 5431 5450 5470 5487 5497 5511 5526 5540
5364 5361 5355 5351 5346 5341 5338 5335 5332 5329 5325 5321 5318 5314 5311 5308 5305 5300 5297 5294 5290 5289 5287 5286 5286 5287 5290 5291 5295 5298 5303 5317 5337 5359 5376 5399 5424 5444 5457 5468 5487 5501 5526
5351 5347 5342 5337 5332 5329 5326 5323 5320 5316 5313 5310 5308 5305 5302 5299 5295 5292 5288 5285 5281 5278 5276 5276 5274 5274 5274 5275 5277 5279 5282 5293 5304 5318 5339 5367 5394 5415 5430 5445 5461 5486 5510
5337 5333 5329 5325 5321 5318 5315 5312 5308 5305 5301 5299 5298 5296 5293 5290 5287 5283 5280 5275 5272 5269 5266 5265 5264 5262 5261 5260 5262 5262 5262 5268 5274 5290 5310 5334 5361 5384 5403 5418 5442 5465 5479
5324 5320 5316 5313 5309 5306 5302 5300 5297 5294 5291 5289 5288 5287 5285 5282 5278 5275 5271 5267 5263 5260 5257 5255 5253 5252 5249 5247 5246 5246 5246 5247 5250 5266 5284 5306 5326 5349 5369 5389 5415 5434 5448
5310 5307 5305 5302 5299 5294 5290 5287 5286 5283 5281 5280 5279 5278 5277 5276 5271 5267 5262 5259 5255 5252 5248 5245 5242 5240 5238 5235 5231 5230 5228 5229 5232 5242 5256 5274 5294 5313 5335 5358 5382 5398 5418
5298 5295 5293 5290 5287 5284 5280 5277 5275 5273 5272 5270 5270 5269 5268 5268 5266 5261 5257 5253 5248 5242 5239 5235 5232 5228 5226 5223 5218 5214 5212 5212 5215 5217 5228 5245 5261 5278 5300 5326 5352 5375 5397
5285 5283 5280 5278 5276 5273 5270 5267 5264 5263 5262 5261 5261 5260 5260 5259 5258 5256 5253 5244 5240 5236 5232 5228 5222 5219 5210 5206 5205 5200 5197 5196 5197 5201 5209 5223 5238 5255 5276 5301 5326 5349 5373